[[{"header":{"parameterUnit":"m.s-1","parameterCategory":1,"la1":30.2992,"la2":30.254,"lo1":-89.0895,"lo2":-89.0443,"dy":0.0025,"dx":0.0025,"nx":19,"ny":19,"refTime":"2026-04-02T21:00:00:Z","depth":0,"parameterNumber":2,"parameterNumberName":"U-component_of_WINDS"},"data":[0,0,0,-3.7871,-3.7872,-3.7945,-3.7945,-3.8044,-3.8045,0,0,0,0,0,0,0,0,0,0,0,-3.7853,-3.7854,-3.787,-3.7872,-3.7945,-3.7945,-3.8044,-3.8045,0,0,0,0,0,0,0,0,0,0,0,-3.7853,-3.7854,-3.7855,-3.7873,-3.7945,-3.7945,-3.8043,-3.7986,0,0,0,0,0,0,0,0,0,0,-3.7914,-3.7902,-3.7853,-3.7855,-3.7873,-3.7945,-3.7945,-3.7983,-3.799,-3.8013,0,-3.8036,0,-3.8042,-3.8052,-3.8052,0,0,0,-3.7869,-3.7897,-3.7913,-3.7855,-3.7874,-3.7945,-3.7911,-3.7987,-3.7994,-3.8022,-3.8037,-3.8041,-3.8044,-3.8052,-3.8053,-3.8202,-3.8202,0,0,-3.7865,-3.7868,-3.7908,-3.7918,-3.7909,-3.7909,-3.7914,-3.7991,-3.8008,-3.8038,-3.8043,-3.8045,-3.8053,-3.8054,-3.8201,-3.8202,0,0,0,-3.7856,-3.7865,-3.7879,-3.7914,-3.7927,-3.7911,-3.7916,-3.8004,-3.8009,-3.8044,-3.8047,-3.8054,-3.8055,-3.82,-3.8201,-3.8245,0,0,0,-3.7853,-3.786,-3.7878,-3.788,-3.7926,-3.7967,-3.7928,-3.8004,-3.8012,-3.8046,-3.8054,-3.8056,-3.8199,-3.82,-3.8242,-3.8264,0,0,0,-3.7847,-3.7859,-3.7871,-3.788,-3.7912,-3.7966,-3.7974,-3.8005,-3.8014,-3.8052,-3.8056,-3.8198,-3.82,-3.8239,-3.826,-3.8303,0,0,0,-3.784,-3.7909,-3.7872,-3.795,-3.7911,-3.7993,-3.7974,-3.8035,-3.8073,-3.8054,-3.8199,-3.8201,-3.8238,-3.8257,-3.83,-3.8338,-3.8356,0,0,-3.7928,-3.792,-3.7965,-3.7934,-3.8023,-3.7982,-3.8078,-3.8109,-3.811,-3.8171,-3.8174,-3.8243,-3.8259,-3.8302,-3.8454,-3.8468,0,0,0,-3.7994,-3.8026,-3.805,-3.8087,-3.8114,-3.8138,-3.8155,-3.8167,-3.8219,-3.8142,-3.8272,-3.8281,-3.8306,-3.8324,-3.8336,-3.8356,-3.821,-3.821,-3.821,-3.812,-3.8119,-3.8194,-3.8201,-3.8238,-3.8255,-3.8284,-3.8303,-3.829,-3.8321,-3.8338,-3.843,-3.8452,-3.846,-3.8482,-3.836,-3.8361,-3.8361,-3.8361,-3.8247,-3.8292,-3.8275,-3.8341,-3.8339,-3.8394,-3.8415,-3.8404,-3.8454,-3.8417,-3.8439,-3.8396,-3.8475,-3.8494,-3.8364,-3.8364,-3.8363,-3.8363,-3.8363,-3.8327,-3.8348,-3.8363,-3.8417,-3.8459,-3.8464,-3.8514,-3.8511,-3.8508,-3.853,-3.8546,-3.8546,-3.8542,-3.8539,-3.8539,-3.8539,-3.854,-3.854,-3.854,-3.8403,-3.8419,-3.8461,-3.8497,-3.8521,-3.8551,-3.8571,-3.8594,-3.8618,-3.8612,-3.8612,-3.8595,-3.8485,-3.8455,-3.8545,-3.8544,-3.8543,-3.8543,-3.8543,-3.8528,-3.85,-3.8565,-3.8589,-3.863,-3.8671,-3.8668,-3.8715,-3.8734,-3.8758,-3.8738,-3.8658,-3.8648,-3.8638,-3.8614,-3.8739,-3.8739,-3.8739,-3.8739,-3.8593,-3.8589,-3.8655,-3.8694,-3.8731,-3.8735,-3.8808,-3.8825,-3.8837,-3.8849,-3.8831,-3.8799,-3.879,-3.8785,-3.8773,-3.875,-3.8907,-3.8907,-3.8908,-3.8669,-3.8668,-3.8731,-3.8744,-3.8777,-3.8805,-3.8873,-3.8917,-3.8926,-3.8914,-3.8857,-3.885,-3.8799,-3.8783,-3.8766,-3.8747,-3.8705,0,0]},{"header":{"parameterUnit":"m.s-1","parameterCategory":1,"la1":30.2992,"la2":30.254,"lo1":-89.0895,"lo2":-89.0443,"dy":0.0025,"dx":0.0025,"nx":19,"ny":19,"refTime":"2026-04-02T21:00:00:Z","depth":0,"parameterNumber":3,"parameterNumberName":"V-component_of_WINDS"},"data":[0,0,0,3.233,3.2333,3.244,3.244,3.258,3.2581,0,0,0,0,0,0,0,0,0,0,0,3.2301,3.2302,3.233,3.2333,3.244,3.244,3.258,3.2582,0,0,0,0,0,0,0,0,0,0,0,3.2301,3.2302,3.2303,3.2333,3.244,3.2441,3.258,3.2497,0,0,0,0,0,0,0,0,0,0,3.2392,3.2369,3.2302,3.2303,3.2334,3.244,3.2441,3.2493,3.2503,3.2533,0,3.2562,0,3.2574,3.2591,3.2592,0,0,0,3.233,3.2361,3.2388,3.2303,3.2335,3.244,3.2391,3.2498,3.2509,3.2545,3.2564,3.2569,3.2577,3.2592,3.2593,3.2784,3.2785,0,0,3.2324,3.2321,3.2381,3.2395,3.238,3.2387,3.2394,3.2505,3.2524,3.2565,3.2573,3.2579,3.2593,3.2594,3.2783,3.2785,0,0,0,3.2309,3.2317,3.2341,3.2389,3.2409,3.2391,3.2398,3.2519,3.2528,3.2574,3.2581,3.2594,3.2596,3.2782,3.2784,3.2834,0,0,0,3.2305,3.2308,3.2339,3.2338,3.2407,3.2466,3.2411,3.252,3.2533,3.258,3.2594,3.2597,3.2781,3.2783,3.283,3.2857,0,0,0,3.2293,3.2307,3.2324,3.2338,3.2384,3.2464,3.2478,3.2523,3.2537,3.2592,3.2597,3.278,3.2783,3.2826,3.2851,3.2908,0,0,0,3.2278,3.2363,3.2324,3.2422,3.2383,3.2494,3.2478,3.256,3.2613,3.2595,3.2781,3.2784,3.2825,3.2848,3.2904,3.2956,3.2977,0,0,3.2384,3.2376,3.2434,3.2402,3.252,3.2478,3.2603,3.2652,3.2659,3.2742,3.2746,3.2831,3.2851,3.2907,3.3095,3.3112,0,0,0,3.2466,3.2508,3.254,3.2592,3.2634,3.2673,3.2704,3.2723,3.2795,3.2702,3.2867,3.2878,3.2912,3.2936,3.295,3.298,3.2795,3.2795,3.2794,3.261,3.2617,3.2714,3.2735,3.2785,3.2819,3.2861,3.2892,3.2881,3.292,3.2945,3.3058,3.3087,3.3098,3.3128,3.2972,3.2972,3.2972,3.2973,3.2765,3.2826,3.2814,3.2904,3.2911,3.2986,3.3023,3.3013,3.3084,3.3039,3.3069,3.302,3.3116,3.3143,3.2976,3.2976,3.2975,3.2975,3.2975,3.286,3.2891,3.2915,3.2994,3.3053,3.3071,3.3141,3.3144,3.3146,3.3175,3.3203,3.3202,3.3202,3.3189,3.3189,3.3189,3.319,3.319,3.319,3.2949,3.2975,3.3035,3.309,3.3126,3.3173,3.3211,3.3245,3.3284,3.328,3.3281,3.3267,3.3124,3.3089,3.3196,3.3195,3.3194,3.3194,3.3194,3.3104,3.3071,3.3163,3.3199,3.3266,3.3327,3.3331,3.3402,3.3431,3.3466,3.3447,3.3341,3.3332,3.332,3.3291,3.3445,3.3445,3.3445,3.3445,3.3185,3.3182,3.3279,3.3337,3.3394,3.3409,3.3513,3.3544,3.357,3.3589,3.3567,3.3528,3.3517,3.3515,3.3499,3.3472,3.3668,3.3668,3.3668,3.3281,3.3285,3.3373,3.3402,3.3455,3.3501,3.36,3.3667,3.3689,3.3678,3.3604,3.3594,3.3532,3.3511,3.3497,3.3472,3.3422,0,0]}]]